Location: Croydon
(51.3762°N, 0.0982°W)
Time: 07:08:34
(UTC+01:00)

ESTCUBE 1 - Visible Passes

Search period start: 21 April 2019 00:00
Search period end: 01 May 2019 00:00
Orbit: 647 x 661 km, 98.0° (Epoch: 20 April)

Date Brightness Start Highest point End Pass type
(mag) Time Alt. Az. Time Alt. Az. Time Alt. Az.
21 Apr ? 01:13:05 12° W 01:13:05 12° W 01:14:36 10° WNW visible
21 Apr ? 22:25:22 22° E 22:26:36 25° ENE 22:30:18 10° N visible
22 Apr ? 00:03:14 48° W 00:03:14 48° W 00:07:33 10° NNW visible
22 Apr ? 22:53:22 38° E 22:54:11 42° ENE 22:58:27 10° N visible
23 Apr ? 00:31:14 27° W 00:31:14 27° W 00:35:00 10° NW visible
23 Apr ? 21:43:55 10° E 21:45:52 13° NE 21:47:48 10° NNE visible
23 Apr ? 23:21:23 65° ESE 23:21:53 73° ENE 23:26:24 10° N visible
24 Apr ? 00:59:15 16° W 00:59:15 16° W 01:01:59 10° NW visible
24 Apr ? 22:11:31 16° E 22:13:18 20° ENE 22:16:35 10° NNE visible
24 Apr ? 23:49:23 62° SW 23:49:41 64° WSW 23:54:11 10° NNW visible
25 Apr ? 22:39:32 27° E 22:40:50 32° ENE 22:44:51 10° N visible
26 Apr ? 00:17:24 35° WSW 00:17:36 36° W 00:21:45 10° NNW visible
26 Apr ? 23:07:32 46° ESE 23:08:29 55° ENE 23:12:54 10° N visible
27 Apr ? 00:45:24 21° W 00:45:37 21° W 00:49:01 10° NW visible
27 Apr ? 21:57:41 11° E 22:00:01 16° ENE 22:02:46 10° NNE visible
27 Apr ? 23:35:33 64° S 23:36:13 84° WSW 23:40:45 10° NNW visible
28 Apr ? 01:13:25 12° W 01:13:44 12° W 01:15:23 10° WNW visible
28 Apr ? 22:25:42 20° E 22:27:30 26° ENE 22:31:12 10° N visible
29 Apr ? 00:03:34 45° WSW 00:04:04 47° W 00:08:26 10° NNW visible
29 Apr ? 22:53:42 33° ESE 22:55:06 42° ENE 22:59:21 10° N visible
30 Apr ? 00:31:34 26° WSW 00:32:02 27° W 00:35:52 10° NW visible
30 Apr ? 21:44:45 10° E 21:46:45 13° NE 21:48:44 10° NNE visible
30 Apr ? 23:21:43 51° SE 23:22:47 75° ENE 23:27:17 10° N visible
